Weather History for MROC - October, 2011

Change the Weather History Date:

Wednesday, October 12, 2011

  Actual Average Record
Temperature  
Mean Temperature 64 °F -  
Max Temperature 72 °F 78 °F 85 °F (2012)
Min Temperature 57 °F 64 °F 57 °F (2011)
Growing Degree Days 14 (Base 50)    
Moisture  
Dew Point 65 °F    
Average Humidity 97    
Maximum Humidity 100    
Minimum Humidity 83    
Precipitation  
Precipitation 0.75 in 0.33 in - ()
Sea Level Pressure  
Sea Level Pressure 30.01 in    
Wind  
Wind Speed 3 mph ()    
Max Wind Speed 13 mph    
Max Gust Speed -    
Visibility 3.3 miles    
Events Fog , Rain    
Averages and records for this station are not official NWS values.
T = Trace of Precipitation, MM = Missing Value Source: Averaged Metar Reports

Daily Weather History Graph

Daily Weather History Graph

Search for Another Location

Airport or City:

Trip Planner

Search our weather history database for the weather conditions in past years. The results will help you decide how hot, cold, wet, or windy it might be!

Date:

Astronomy

Oct. 12, 2011 Rise Set
Actual Time 5:25 AM CST 5:21 PM CST
Civil Twilight 5:04 AM CST 5:42 PM CST
Nautical Twilight 4:39 AM CST 6:06 PM CST
Astronomical Twilight 4:15 AM CST 6:31 PM CST
Moon 5:44 PM CST (10/12) 5:42 AM CST (10/12)
Length of Visible Light 12h 38m
Length of Day
11h 56m
Full, 100% of the Moon is Illuminated
Oct 12
Full
Oct 19
Last Quarter
Oct 26
New
Nov 2
First Quarter
Nov 10
Full

Hourly Weather History & Observations

Time (CST) Temp. Dew Point Humidity Pressure Visibility Wind Dir Wind Speed Gust Speed Precip Events Conditions
12:00 AM 66 °F 66 °F 100% 29.89 in 9 mi Calm Calm - - Rain Light Rain
12:00 AM 66.2 °F 66.2 °F 100% 30.08 in 6.2 mi Calm Calm - N/A Rain Light Rain
1:00 AM 66.2 °F 66.2 °F 100% 30.06 in 6.2 mi Calm Calm - N/A Rain Light Rain
2:00 AM 66.2 °F 66.2 °F 100% 30.03 in 6.2 mi Calm Calm - N/A Rain Light Rain
3:00 AM 66 °F 66 °F 100% 29.88 in 9 mi ENE 3.5 mph - - Rain Light Drizzle
3:00 AM 66.2 °F 66.2 °F 100% 30.01 in 6.2 mi ENE 3.5 mph - N/A   Light Drizzle
3:40 AM 66.2 °F 66.2 °F 100% 30.02 in 0.2 mi Calm Calm - N/A Fog Fog
4:00 AM 66.2 °F 66.2 °F 100% 30.02 in 6.2 mi NNE 3.5 mph - N/A Fog Fog
5:00 AM 66.2 °F 66.2 °F 100% 30.04 in 0.7 mi Calm Calm - N/A   Mostly Cloudy
5:20 AM 66.2 °F 66.2 °F 100% 30.05 in 2.5 mi Calm Calm - N/A   Drizzle
6:00 AM 66 °F 66 °F 100% 29.92 in 2 mi Calm Calm - - Rain Light Drizzle
6:00 AM 66.2 °F 66.2 °F 100% 30.05 in 1.9 mi Calm Calm - N/A   Light Drizzle
7:00 AM 66.2 °F 66.2 °F 100% 30.07 in 0.9 mi Calm Calm - N/A   Light Drizzle
8:00 AM 66.2 °F 66.2 °F 100% 30.07 in 1.9 mi SE 1.2 mph - N/A   Overcast
9:00 AM 63 °F 63 °F 98% 29.96 in 6 mi SE 2.3 mph - -   Overcast
9:00 AM 62.6 °F 62.6 °F 100% 30.08 in 6.2 mi SE 2.3 mph - N/A   Mostly Cloudy
10:00 AM 60.8 °F 60.8 °F 100% 30.08 in 1.5 mi SW 4.6 mph - N/A Rain Rain
10:34 AM 59.0 °F 59.0 °F 100% 30.07 in 1.2 mi SW 5.8 mph - N/A Rain Rain
11:00 AM 59.0 °F 59.0 °F 100% 30.06 in 1.2 mi WSW 6.9 mph - N/A   Heavy Drizzle
11:15 AM 57.2 °F 57.2 °F 100% 30.05 in 3.1 mi SW 6.9 mph - N/A   Overcast
11:33 AM 71.6 °F 68.0 °F 88% 30.04 in 5.0 mi SW 5.8 mph - N/A Fog Fog
12:00 PM 72 °F 68 °F 83% 29.88 in 9 mi WSW 6.9 mph - -   Overcast
12:00 PM 71.6 °F 68.0 °F 88% 30.03 in 6.2 mi WSW 6.9 mph - N/A   Mostly Cloudy
1:00 PM 71.6 °F 68.0 °F 88% 30.01 in 6.2 mi WSW 6.9 mph - N/A   Mostly Cloudy
2:00 PM 71.6 °F 68.0 °F 88% 29.98 in 6.2 mi WSW 10.4 mph - N/A   Mostly Cloudy
2:12 PM 69.8 °F 68.0 °F 94% 29.98 in 6.2 mi SW 11.5 mph - N/A   Mostly Cloudy
3:00 PM 68 °F 67 °F 96% 29.82 in 2 mi SW 12.7 mph - -   Overcast
3:00 PM 68.0 °F 68.0 °F 100% 29.97 in 1.9 mi SW 12.7 mph - N/A Rain Light Rain
3:33 PM 68.0 °F 66.2 °F 94% 29.98 in 1.2 mi SW 11.5 mph - N/A Rain Light Rain
4:00 PM 66.2 °F 66.2 °F 100% 29.98 in - North - - N/A Rain Light Rain
4:32 PM 66.2 °F 64.4 °F 94% 29.99 in 0.3 mi SW 10.4 mph - N/A Fog , Rain Light Rain
4:38 PM 66.2 °F 64.4 °F 94% 29.99 in 1.2 mi SW 10.4 mph - N/A Rain Light Rain
5:00 PM 68.0 °F 66.2 °F 94% 30.00 in 0.6 mi SSW 9.2 mph - N/A Rain Light Rain
5:25 PM 66.2 °F 66.2 °F 100% 30.00 in 1.2 mi SSW 4.6 mph - N/A Rain Rain
6:00 PM 66 °F 66 °F 98% 29.85 in 1 mi SSW 5.8 mph - - Rain Light Rain
6:00 PM 66.2 °F 66.2 °F 100% 30.02 in 1.2 mi SSW 5.8 mph - N/A Rain Rain
7:00 PM 66.2 °F 64.4 °F 94% 30.05 in 1.9 mi SW 9.2 mph - N/A Rain Rain
7:32 PM 64.4 °F 64.4 °F 100% 30.07 in 1.9 mi SW 6.9 mph - N/A Rain Rain
7:38 PM 64.4 °F 64.4 °F 100% 30.07 in 1.2 mi SW 6.9 mph - N/A Rain Rain
8:00 PM 64.4 °F 64.4 °F 100% 30.08 in 1.2 mi SW 6.9 mph - N/A Rain Rain
9:00 PM 64.4 °F 64.4 °F 100% 30.10 in 1.2 mi SW 5.8 mph - N/A Rain Light Rain
10:00 PM 64.4 °F 62.6 °F 94% 30.10 in 0.9 mi Calm Calm - N/A Rain Light Rain
11:00 PM 64.4 °F 62.6 °F 94% 30.08 in 1.6 mi Calm Calm - N/A Rain Light Rain